K9JM Weather Reports


Display with metric or nautical units.
time (UTC)temp
F
wind
direction
speed
MPH
gust
MPH
rain 1hr
in
rain 24hr
in
rain mn
in
humidity
%
barometer
mb
20260506211516 63 0.0 0.0 0.00 0.00 0.00 81 1020.0
20260506210016 63 0.0 0.0 0.00 0.00 0.00 79 1020.0
20260506204516 61 0.0 0.0 0.00 0.00 0.00 82 1020.2
20260506203015 61 0.0 0.0 0.00 0.00 0.00 83 1020.3
20260506201516 61 0.0 0.0 0.00 0.00 0.00 81 1020.4
20260506200015 60 0.0 0.0 0.00 0.00 0.00 81 1020.2
20260506194516 61 0.0 0.0 0.00 0.00 0.00 82 1020.6
20260506193016 60 0.0 0.0 0.00 0.00 0.00 78 1020.6
20260506191515 59 0.0 0.0 0.00 0.00 0.00 83 1020.7
20260506190015 59 0.0 0.0 0.00 0.00 0.00 81 1020.8
20260506184515 58 0.0 0.0 0.00 0.00 0.00 81 1020.9
20260506183015 58 0.0 0.0 0.00 0.00 0.00 82 1020.8
20260506181515 57 0.0 0.0 0.00 0.00 0.00 82 1020.9
20260506180016 57 0.0 0.0 0.00 0.00 0.00 82 1020.9
20260506174515 57 0.0 0.0 0.00 0.00 0.00 84 1020.8
20260506173036 57 0.0 0.0 0.00 0.00 0.00 84 1020.7
20260506171515 56 0.0 0.0 0.00 0.00 0.00 84 1020.5
20260506170015 56 0.0 0.0 0.00 0.00 0.00 85 1020.6
20260506164515 56 0.0 0.0 0.00 0.00 0.00 85 1020.5
20260506163036 55 0.0 0.0 0.00 0.01 0.00 86 1020.5
20260506161535 55 0.0 0.0 0.00 0.01 0.00 87 1020.4
20260506160015 55 0.0 0.0 0.00 0.01 0.00 88 1020.3
20260506154535 54 0.0 0.0 0.00 0.01 0.00 89 1020.3
20260506153015 54 0.0 0.0 0.00 0.01 0.00 90 1020.1
20260506151535 54 0.0 0.0 0.00 0.01 0.00 91 1020.3
20260506150015 53 0.0 0.0 0.00 0.01 0.00 92 1020.4
20260506144515 53 0.0 0.0 0.00 0.01 0.00 93 1020.3
20260506143015 53 0.0 0.0 0.00 0.01 0.00 93 1020.3
20260506141515 53 0.0 0.0 0.00 0.01 0.00 93 1019.9
20260506140015 53 0.0 0.0 0.00 0.01 0.00 93 1019.9
20260506134515 53 0.0 0.0 0.00 0.01 0.00 93 1019.8
20260506133015 53 0.0 0.0 0.00 0.01 0.00 93 1019.6
20260506131517 52 0.0 0.0 0.00 0.01 0.00 93 1019.5
20260506130017 52 0.0 0.0 0.00 0.01 0.00 94 1019.6
20260506124518 52 0.0 0.0 0.00 0.01 0.00 94 1019.6
20260506123017 52 0.0 0.0 0.00 0.01 0.00 94 1019.4
20260506121517 52 0.0 0.0 0.00 0.01 0.00 94 1019.2
20260506120018 52 0.0 0.0 0.00 0.01 0.00 94 1019.2
20260506114517 52 0.0 0.0 0.00 0.01 0.00 94 1019.1
20260506113017 52 0.0 0.0 0.00 0.01 0.00 94 1019.1
20260506111517 52 0.0 0.0 0.00 0.01 0.00 94 1019.0
20260506110017 52 0.0 0.0 0.00 0.01 0.00 94 1018.8
20260506104517 52 0.0 0.0 0.00 0.01 0.00 94 1018.8
20260506103017 52 0.0 0.0 0.00 0.01 0.00 94 1018.8
20260506101517 52 0.0 0.0 0.00 0.01 0.00 94 1018.7
20260506100017 52 0.0 0.0 0.00 0.01 0.00 93 1018.7
20260506094517 52 0.0 0.0 0.00 0.01 0.00 93 1018.6
20260506093017 52 0.0 0.0 0.00 0.01 0.00 93 1018.6
20260506091517 52 0.0 0.0 0.00 0.01 0.00 93 1018.5
20260506090037 52 0.0 0.0 0.00 0.01 0.00 93 1018.6
20260506084517 53 0.0 0.0 0.00 0.01 0.00 93 1018.6
20260506083017 53 0.0 0.0 0.00 0.01 0.00 93 1018.5
20260506081517 53 0.0 0.0 0.00 0.01 0.00 93 1018.4
20260506073017 53 0.0 0.0 0.00 0.01 0.00 93 1018.3
20260506071517 53 0.0 0.0 0.00 0.01 0.00 93 1018.3
20260506061516 53 0.0 0.0 0.00 0.05 0.03 92 1017.9
20260506044516 53 0.0 0.0 0.00 0.10 0.03 92 1017.0
20260506043016 53 0.0 0.0 0.00 0.16 0.03 92 1016.9
20260506041516 53 0.0 0.0 0.00 0.22 0.03 92 1016.7
20260506040016 53 0.0 0.0 0.00 0.32 0.03 92 1016.6
20260506034516 53 0.0 0.0 0.00 0.46 0.03 91 1016.3
20260506033016 53 0.0 0.0 0.00 0.55 0.03 91 1016.0
20260506031516 53 0.0 0.0 0.00 0.63 0.03 91 1015.8
20260506030056 53 0.0 0.0 0.00 0.66 0.03 90 1016.0
20260506024536 54 0.0 0.0 0.00 0.69 0.03 90 1015.8
20260506023016 54 0.0 0.0 0.00 0.77 0.03 90 1015.7
20260506021516 54 0.0 0.0 0.00 0.85 0.03 90 1015.4
20260506020056 54 0.0 0.0 0.00 0.86 0.03 89 1015.4
20260506014516 54 0.0 0.0 0.00 0.86 0.03 90 1015.1
20260506013016 54 0.0 0.0 0.00 0.87 0.03 90 1015.1
20260506011516 54 0.0 0.0 0.00 0.88 0.03 89 1014.9
20260506010015 55 0.0 0.0 0.00 0.90 0.03 89 1015.2
20260506004516 55 0.0 0.0 0.00 0.90 0.03 87 1015.2
20260506003015 55 0.0 0.0 0.00 0.93 0.03 88 1015.1
20260506001516 55 0.0 0.0 0.00 0.98 0.03 88 1015.0
20260506000015 55 0.0 0.0 0.00 1.04 0.03 88 1015.0
20260505234536 54 0.0 0.0 0.00 1.08 0.03 88 1014.5
20260505233055 54 0.0 0.0 0.00 1.08 0.03 89 1014.9
20260505231515 54 0.0 0.0 0.00 1.09 0.03 89 1014.9
20260505230016 54 0.0 0.0 0.00 1.13 0.03 89 1014.8
20260505224516 54 0.0 0.0 0.00 1.14 0.03 90 1014.9
20260505223015 54 0.0 0.0 0.00 1.15 0.03 90 1015.0
20260505221516 54 0.0 0.0 0.00 1.16 0.03 90 1014.9
20260505220016 54 0.0 0.0 0.00 1.19 0.03 89 1015.1
20260505214516 54 0.0 0.0 0.00 1.21 0.03 89 1015.4
20260505213015 53 0.0 0.0 0.00 1.21 0.03 90 1015.3